Regional Weather Roundup
Issued by NWS

Home | Current Version | Previous Version | Text Only | Print | Product List | Glossary On
Versions: 1 2 3 4 5 6 7 8 9 10 11 12 13 14 15 16 17 18 19 20 21 22 23 24 25 26 27 28 29 30 31 32 33 34 35 36 37 38 39 40 41 42 43 44 45 46 47 48 49 50
000
ASUS42 KTBW 291110
RWRFL
FLORIDA REGIONAL WEATHER ROUNDUP
NATIONAL WEATHER SERVICE TAMPA BAY RUSKIN FL
600 AM EST MON DEC 29 2014

NOTE: "FAIR" INDICATES FEW OR NO CLOUDS BELOW 12,000 FEET WITH NO
SIGNIFICANT WEATHER AND/OR OBSTRUCTIONS TO VISIBILITY.


FLZ001>010-012>015-112-114-115-291200-
PANHANDLE FLORIDA

CITY           SKY/WX    TMP DP  RH WIND       PRES   REMARKS
PENSACOLA      LGT RAIN  57  55  93 NE5       30.03F
MILTON NAS     LGT RAIN  56  55  97 CALM      30.04F
CRESTVIEW      RAIN      57  56  96 VRB3      30.06R FOG
DUKE FIELD     LGT RAIN  58  57  96 N7        30.04R
VALPARAISO     LGT RAIN  58  57  96 N9        30.03R FOG
MARY ESTHER    RAIN      57  55  94 N6        30.04R
PANAMA CITY    RAIN      64  63  94 N12       30.00R FOG
TYNDALL AFB    LGT RAIN  66  66 100 N8        30.02R
APALACHICOLA   PTCLDY    69  66  90 S7        30.01S

STATION/POSITION SKY/WX   TEMP    WIND        PRES    WAVE   SWELL
                          AIR SEA DIR/SP/G            HT/PER HT/PER
                          (F)     (DEG/KT/KT) (MB)    (FT/S) (FT/S)
30.1N   87.6W              61 68   50/ 14/ 17 1016.4R   2/ 4
29.2N   88.2W              63 73   30/ 16/ 17 1017.4R   5/ 5
28.7N   86.0W              74 74  210/ 14/ 16 1016.7R   3/ 5   2/ 7
PANAMA CITY BEAC           65 62  360/  6/  9 1015.8R
CAPE SAN BLAS    NOT AVBL
TOWER C                    71     200/ 14/ 14 1016.6R
28.5N   84.5W              73 71  210/ 10/ 10 1017.3R   2/ 4   2/ 5

$$
FLZ011-016>038-118-127-128-134-139-239-291200-
NORTH FLORIDA

CITY           SKY/WX    TMP DP  RH WIND       PRES   REMARKS
MARIANNA       RAIN      66  66 100 N7        30.02R FOG
TALLAHASSEE    FOG       67  64  90 SE3       30.02S VSB 3/4
PERRY          CLOUDY    68  67  99 SW6       30.05R
CROSS CITY       N/A     66  66 100 CALM      30.06R
LAKE CITY      CLOUDY    63  63 100 CALM      30.07S
GAINESVILLE    FOG       64  64 100 W3        30.07R VSB 1/2
MAYPORT NAS    CLOUDY    65  65 100 W9        30.07R
JACKSONVILLE   CLOUDY    64  64 100 W3        30.07R FOG
JAX NAS        CLOUDY    67  64  90 W5        30.08R FOG
JAX CRAIG      CLOUDY    65  64  97 W5        30.07R FOG
JAX CECIL      CLOUDY    64  64 100 SW5       30.07R FOG
FERNANDINA BEA CLOUDY    70  66  88 W6        30.06R
ST AUGUSTINE   CLOUDY    65  64  97 SW6       30.08R

STATION/POSITION SKY/WX   TEMP    WIND        PRES    WAVE   SWELL
                          AIR SEA DIR/SP/G            HT/PER HT/PER
                          (F)     (DEG/KT/KT) (MB)    (FT/S) (FT/S)
SHELL POINT                64     180/  4/  5   N/A
KEATON BEACH               65     160/  9/ 11 1017.6R
CEDAR KEY                  64     210/  2/  3 1018.5R
FERNANDINA                 64 62  260/  7/  8 1017.7R
30.7N   81.3W                 62                N/A     2/14   2/14
MAYPORT          NOT AVBL
31.4N   80.9W              61 59  250/ 10/ 12 1017.8R   2/14   2/14
ST AUGUSTINE               64     200/  7/  9 1018.5R

$$
FLZ040-043>046-052-053-057-058-063-144-291200-
INTERIOR CENTRAL FLORIDA

CITY           SKY/WX    TMP DP  RH WIND       PRES   REMARKS
OCALA          CLOUDY    63  61  94 S7        30.08R VSB 1/4
THE VILLAGES   FOG       61  61 100 CALM      29.98F VSB 0
LEESBURG       PTCLDY    63  62  97 SE5       30.09F FOG
SANFORD        CLEAR     62  60  93 CALM      30.09R FOG
ORLANDO EXEC   CLEAR     65  64  97 CALM      30.09R
ORLANDO INTL   PTCLDY    64  63  96 CALM      30.10R
WINTER HAVEN   CLEAR     65  63  93 S5        30.10R
BARTOW         FOG       57 N/A N/A CALM      30.09S VSB 1/4
OKEECHOBEE       N/A     61  61 100 CALM      30.10S FOG

$$
FLZ041-047-054-059-064-141-147-291200-
EAST CENTRAL FLORIDA

CITY           SKY/WX    TMP DP  RH WIND       PRES   REMARKS
DAYTONA BEACH  FOG       62  61  96 S3        30.09S VSB 3/4
DELAND         CLOUDY   N/A N/A N/A CALM      30.09F VSB 1/4
JFK SPACE CTR  CLEAR     63  63 100 S3        30.09R FOG
CAPE CANAVERAL CLEAR     67  66  96 S2        30.09R
PATRICK AFB    CLEAR     68  67  98 SW6       30.09R
MELBOURNE      CLEAR     68  66  93 S6        30.08F
VERO BEACH     FOG       65  62  90 CALM      30.10R VSB 1/2
FT PIERCE      FOG       62  62 100 CALM      30.09S VSB 1/4
STUART         FOG       63  63 100 CALM      30.10F VSB 3/4

STATION/POSITION SKY/WX   TEMP    WIND        PRES    WAVE   SWELL
                          AIR SEA DIR/SP/G            HT/PER HT/PER
                          (F)     (DEG/KT/KT) (MB)    (FT/S) (FT/S)
28.5N   80.2W              74 76  190/ 16/ 17 1018.3F
28.9N   78.5W              76 77  180/ 16/ 17 1019.2F   3/12   3/12
TRIDENT PIER               68 69  180/  3/  5 1018.2R
28.4N   80.5W                 69                N/A     2/14   2/14
27.6N   80.2W                 75                N/A     3/14   3/14

$$
FLZ050-056-061-142-242-148-248-149-249-151-251-155-255-
160-260-291200-
WEST CENTRAL FLORIDA

CITY           SKY/WX    TMP DP  RH WIND       PRES   REMARKS
CRYSTAL RIVER  FOG       63  61  94 SE3       30.07S VSB 1/4
INVERNESS      LGT RAIN  63  61  94 CALM      30.09S VSB<1/4
BROOKSVILLE    FOG       61  60  97 SE3       30.08F VSB 1/4
ZEPHYRHILLS    FAIR      54  54 100 CALM      30.10R FOG
CLEARWATER     CLEAR     63  63 100 CALM      30.08R
TAMPA INTL     CLEAR     67  64  90 CALM      30.09R
TAMPA EXEC     FOG       61  59  94 CALM      30.09S VSB 1/2
PLANT CITY     CLEAR     64 N/A N/A CALM      30.11R
MACDILL AFB    CLEAR     63  63 100 CALM      30.09R
PETER O KNIGHT CLEAR     64  64 100 CALM      30.09R FOG
ST PETERSBURG  CLEAR     66  64  93 CALM      30.07R
SARASOTA       CLEAR     62  62 100 SE5       30.07R
VENICE         FAIR      64  64 100 CALM      30.09R

STATION/POSITION SKY/WX   TEMP    WIND        PRES    WAVE   SWELL
                          AIR SEA DIR/SP/G            HT/PER HT/PER
                          (F)     (DEG/KT/KT) (MB)    (FT/S) (FT/S)
CEDAR KEY                  64     210/  2/  3 1018.5R
28.5N   84.5W              73 71  210/ 10/ 10 1017.3R   2/ 4   2/ 5
27.3N   84.3W                 75                N/A     2/ 4
CLEARWATER BEACH           68 68  140/  6/  8 1018.1F
MIDDLE TAMPA BAY           66     170/  8/ 10 1018.5R
VENICE                     66 70  100/  4/  5 1018.4R

$$
FLZ066-069-070-075>078-162-262-165-265-291200-
SOUTHWEST FLORIDA AND KEYS

CITY           SKY/WX    TMP DP  RH WIND       PRES   REMARKS
PUNTA GORDA    MOCLDY    62  62 100 SE5       30.09F
FT MYERS       MOCLDY    64  64 100 CALM      30.08S
SOUTHWEST INTL CLEAR     63  62  97 CALM      30.08F
NAPLES         CLEAR     65  64  97 SE6       30.07F
MARCO ISLAND   CLOUDY    64  63  94 E5        30.08S
MARATHON       CLEAR     76  73  91 SE8       30.06F
KEY WEST NAS   PTCLDY    75  71  87 SE8       30.08R
KEY WEST INTL  PTCLDY    77  72  84 SE9       30.08R

STATION/POSITION SKY/WX   TEMP    WIND        PRES    WAVE   SWELL
                          AIR SEA DIR/SP/G            HT/PER HT/PER
                          (F)     (DEG/KT/KT) (MB)    (FT/S) (FT/S)
VENICE                     66 70  100/  4/  5 1018.4R
NAPLES                     67 77  120/  5/  7 1019.0F
26.0N   85.6W              74 75  150/  8/ 10 1017.3S   3/ 6   2/ 6
DRY TORTUGAS               73     100/  3/  3 1018.2R
NW FL BAY                  75      90/  5/  6 1018.8F
SAND KEY                   77     160/ 13/ 14 1018.3R
SOMBRERO KEY               77     130/ 18/ 20 1018.6F
LONG KEY                   77 75  140/ 13/ 15 1018.8F
MOLASSES REEF              77 78  130/ 14/ 15 1018.5F

$$
FLZ067-068-071>074-168-172>174-291200-
SOUTHEAST FLORIDA

CITY           SKY/WX    TMP DP  RH WIND       PRES   REMARKS
W PALM BEACH   CLOUDY    71  69  93 CALM      30.08S
FT LAUDER-EXEC PTCLDY    71  25  17 CALM      30.08S
FT LAUDERDALE  PTCLDY    72  72 100 CALM      30.07S
POMPANO BEACH  CLEAR     72  71  97 S3        30.08S
PEMBROKE PINES CLEAR     69  67  93 CALM      30.09S
OPA LOCKA      CLEAR     67  65  93 CALM      30.08S
MIAMI          PTCLDY    72  71  97 SE3       30.08S
WEST KENDALL   FOG       69  68  96 SE3       30.08S VSB 1/4
HOMESTEAD      LGT RAIN  70  68  94 CALM      30.08S

STATION/POSITION SKY/WX   TEMP    WIND        PRES    WAVE   SWELL
                          AIR SEA DIR/SP/G            HT/PER HT/PER
                          (F)     (DEG/KT/KT) (MB)    (FT/S) (FT/S)
PORT EVERGLADES            77     150/  7/ 11 1018.5
VIRGINIA KEY               76 76  150/  8/ 11 1019.0S
LAKE WORTH                 77 77  140/ 13/ 14 1018.5S
SETTLEMENT POINT           75     140/  6/  7 1020.2R

$$



USA.gov is the U.S. government's official web portal to all federal, state and local government web resources and services.